Other Public Products
Issued by NWS Grand Forks, ND

Home | Current Version | Previous Version | Text Only | Print | Product List | Glossary Off
Versions: 1 2 3 4 5 6 7 8 9 10 11 12 13 14 15 16 17 18 19 20 21 22 23 24 25 26 27 28 29 30 31 32 33 34 35 36 37 38 39 40 41 42 43 44 45 46 47 48 49 50

000
FPUS83 KFGF 270231
OPUFGF
PRAIRIE TO PINES WEATHER ROUNDUP
NATIONAL WEATHER SERVICE EASTERN NORTH DAKOTA/GRAND FORKS ND
900 PM CDT TUE AUG 26 2014

 **SATELLITE DATA USED TO AUGMENT SKY COVER AT AUTOMATED STATIONS**
 *****  WEATHER ACROSS EASTERN NORTH DAKOTA  *****

CITY           SKY/WX    TMP DP  RH WIND       PRES   REMARKS
GRAND FORKS    PTCLDY    60  55  83 S7        30.12R
GRAND FORKS AF PTCLDY    58  57  98 SW5       30.13R
GRAND CITY NWS   N/A     57 N/A N/A SW2         N/A
BUXTON           N/A     59  58  98 S2          N/A
DEVILS LAKE    PTCLDY    59  48  67 CALM      30.13R
FARGO          MOCLDY    60  57  89 N5        30.14S
WAHPETON ARPT  CLOUDY    61  55  82 W5        30.17R
$$

 *****  WEATHER ACROSS CENTRAL AND WESTERN NORTH DAKOTA  *****

CITY           SKY/WX    TMP DP  RH WIND       PRES   REMARKS
JAMESTOWN      CLOUDY    58  56  93 S3        30.16R
BISMARCK       CLOUDY    57  54  89 SE5       30.17R
MINOT          CLEAR     63  47  55 S6        30.11S
MINOT AFB      MOCLDY    61  52  71 SW8       30.11R
GARRISON         N/A     58  53  84 SE3       30.13S
WILLISTON      CLEAR     64  47  53 CALM      30.10S
DICKINSON      CLEAR     55  52  89 SE8       30.14R
HETTINGER      CLEAR     56  51  84 E6        30.16R
$$

 *****  OTHER OBSERVATIONS NORTHEAST NORTH DAKOTA  *****

CITY           SKY/WX    TMP DP  RH WIND       PRES   REMARKS
WALHALLA         N/A     55  55 100 SE3       30.13R
LANGDON        FAIR      52  46  82 CALM      30.13S
CAVALIER       FAIR      57  50  77 SE3       30.13R
GRAFTON        FAIR      57  52  82 CALM      30.12R
CANDO          FAIR      54  50  87 CALM      30.14S
FORT TOTTEN      N/A     56  52  87 CALM      29.95
ROLLA          FAIR      50  50 100 CALM      30.15R
RUGBY          FAIR      55  52  88 E6        30.13R
 ***** THE ABOVE OBSERVATIONS ARE NON NWS ARE NOT QUALITY
        CONTROLLED AND MAY MIS-REPORT RAIN FOR SNOW...
$$

 *****  OTHER OBSERVATIONS SOUTHEAST NORTH DAKOTA *****

CITY           SKY/WX    TMP DP  RH WIND       PRES   REMARKS
COOPERSTOWN    NOT AVBL
VALLEY CITY    CLOUDY    57  57 100 CALM      30.16S
OAKES            N/A     59  59 100 CALM      30.17R
GWINNER        CLOUDY    61  61 100 N5        30.18R
BUFFALO          N/A     58  55  91 CALM        N/A
WYNDMERE       NOT AVBL
 ***** THE ABOVE OBSERVATIONS ARE NON NWS ARE NOT QUALITY
       CONTROLLED AND MAY MIS-REPORT RAIN FOR SNOW...
$$

  *****  WEATHER ACROSS NORTHERN MINNESOTA  *****

CITY           SKY/WX    TMP DP  RH WIND       PRES   REMARKS
FLAG ISLAND    PTCLDY    55  48  76 SW5       30.14S
WARROAD        MOCLDY    48  45  87 CALM      30.16S
ROSEAU         PTCLDY    52  46  82 CALM      30.16R
HALLOCK        CLEAR     54  52  94 E6        30.13R
THF RVR FALLS  MOCLDY    57  48  72 E6        30.15R
HALSTAD          N/A     58  55  92 S2          N/A
FOSSTON        CLOUDY    52  50  93 CALM      30.16S
BAUDETTE       CLOUDY    52  48  86 CALM      30.16S
WASKISH        CLOUDY    52  48  87 CALM      30.16S
CROOKSTON      PTCLDY    57  54  88 S6        30.15R
$$
  *****  WEATHER ACROSS CENTRAL AND WEST MINNESOTA  *****

CITY           SKY/WX    TMP DP  RH WIND       PRES   REMARKS
BEMIDJI        DRIZZLE   55  53  90 CALM      30.16S
PARK RAPIDS    LGT RAIN  60  53  77 CALM      30.15F
WADENA         CLOUDY    59  54  82 CALM      30.16R
DETROIT LAKES  DRIZZLE   59  55  88 CALM      30.18R
MOORHEAD       LGT RAIN  61  61 100 CALM      30.16R
FERGUS FALLS   CLOUDY    63  54  72 CALM      30.15R
ELBOW LAKE     CLOUDY    59  56  91 SW5       30.16R
MORRIS MN      MOCLDY    59  57  94 CALM      30.16R
STAPLES        CLOUDY    59  55  88 CALM      30.16S
WHEATON        LGT RAIN  57  54  88 CALM      30.17S
$$
  *****  WEATHER ELSEWHERE ACROSS MINNESOTA  *****

CITY           SKY/WX    TMP DP  RH WIND       PRES   REMARKS
DULUTH         PTCLDY    57  49  74 N6        30.15S
INTRNTL FALLS  CLOUDY    54  47  77 W6        30.16R
ELY            CLOUDY    55  48  76 NW5       30.16R
CLOQUET        PTCLDY    55  48  76 NW5       30.17R
BRAINERD         N/A     58  53  84 E3        30.17R
HIBBING        PTCLDY    55  48  77 NW5       30.17R
ALEXANDRIA     CLOUDY    62  56  80 CALM      30.17S
SAINT CLOUD    CLOUDY    65  56  72 CALM      30.15R
MINNEAPOLIS    MOCLDY    69  53  56 NW5       30.14S
$$

  *****  WEATHER ACROSS SOUTH DAKOTA  *****

CITY           SKY/WX    TMP DP  RH WIND       PRES   REMARKS
SIOUX FALLS    MOCLDY    67  56  67 SE8       30.14R
BROOKINGS      NOT AVBL
WATERTOWN      MOCLDY    60  53  77 E7        30.15R
HURON          CLEAR     62  57  83 N7        30.13R
SISSETON         N/A     60  57  89 SW5       30.14S
ABERDEEN       CLOUDY    59  56  89 CALM      30.15S
MITCHELL       PTCLDY    64  60  87 E5        30.13R
PIERRE         CLEAR     66  57  72 E10       30.08S
MOBRIDGE       MOCLDY    60  56  86 E7        30.11S
RAPID CITY     CLEAR     65  57  75 NE8       30.12R
$$

  *****  SOME WEATHER IN NEARBY STATES *****

CITY           SKY/WX    TMP DP  RH WIND       PRES   REMARKS
GLASGOW MT     CLEAR     67  53  61 E6        30.05R
GREAT FALLS MT CLEAR     69  44  40 S6        30.04S
CHEYENNE WY    MOCLDY    66  50  56 SE3       30.24R
SCOTTSBLUFF NE CLOUDY    71  60  68 VRB3      30.10F
OMAHA NE       MOCLDY    73  66  78 E9        30.11R
DES MOINES IA  MOCLDY    74  62  66 E6        30.12R
DAVENPORT IA   CLEAR     69  65  86 N5        30.11R
CHICAGO IL     PTCLDY    74  65  73 NE7       30.09R
EAU CLAIRE WI  MOCLDY    64  58  80 W5        30.14R
LA CROSSE WI   CLOUDY    68  58  70 NW5       30.13R
$$

  *****  SOME NATIONAL WEATHER *****

CITY           SKY/WX    TMP DP  RH WIND       PRES   REMARKS
LA GUARDIA NY  PTCLDY    74  62  66 S13       30.11R
RALEIGH NC     PTCLDY    69  62  78 CALM      30.11R
ATLANTA GA     PTCLDY    78  58  49 E5        30.09R
NEW ORLEANS LA MOCLDY    83  71  67 E7        29.96S
OKLAHOMA CITY  PTCLDY    88  66  48 SE13      30.03R HX  90
ALBUQUERQUE NM MOCLDY    73  52  47 S9        30.20R
SALT LAKE CITY CLOUDY    68  47  46 SE7       30.10F
LOS ANGELES CA PTCLDY    71  61  70 W10       29.94R
BOISE ID       CLEAR     80  45  28 W6        30.04R
SEATTLE WA     CLEAR     85  52  32 W6        29.98F
$$

*** WEATHER ACROSS MANITOBA...SASKATCHEWAN AND ONTARIO ***
                ***ONTARIO***

CITY           SKY/WX    TMP DP  RH WIND       PRES   REMARKS
GERALDTON      CLOUDY    55  50  82 W5        30.05R
THUNDER BAY    CLOUDY    59  50  72 W3        30.12R
SIOUX LOOKOUT  CLOUDY    54  48  82 NW3       30.11S
TORONTO        MOCLDY    77  70  78 W6        29.99R
BIG TROUT LK     N/A    N/A N/A N/A MISG        N/A
PICKLE LAKE    MOCLDY    52  46  82 NW5       30.07R
DRYDEN         CLOUDY    55  48  76 W5        30.13R
KENORA         MOCLDY    55  48  76 W3        30.14R
$$
                *** MANITOBA***

CITY           SKY/WX    TMP DP  RH WIND       PRES   REMARKS
BRANDON        PTCLDY    55  50  82 SW6       30.11S
DAUPHIN        CLEAR     54  52  94 S7        30.07S
ISLAND LAKE    MOCLDY    46  46 100 CALM      30.09S
PILOT MOUND      N/A     54  46  76 W2          N/A
THE PAS        MOCLDY    57  48  72 SE10      29.97F
THOMPSON       MOCLDY    52  46  82 S6        30.01S
WINNIPEG       PTCLDY    55  46  71 E2        30.13R
LYNN LAKE      PTCLDY    57  43  58 MISG      29.88F
CHURCHILL      MOCLDY    52  43  71 S9        29.94S
GILLAM         MOCLDY    46  43  87 S6        30.05S
$$
                ***SASKATCHEWAN***

CITY           SKY/WX    TMP DP  RH WIND       PRES   REMARKS
ESTEVAN        PTCLDY    57  50  77 SE7       30.11
KINDERSLEY     PTCLDY    70  50  49 S7        29.93S
LLOYDMINSTER   PTCLDY    68  54  60 NW6       29.87S
PRINCE ALBERT  MOCLDY    66  52  59 S10       29.90F
REGINA         CLEAR     61  52  72 SE8       30.04S
YORKTON        CLEAR     61  50  67 S6        30.05S



USA.gov is the U.S. government's official web portal to all federal, state and local government web resources and services.